Location: Byszew
(52.1813°N, 19.2693°E)
Time: 08:11:38
(UTC+00:00)

AIST 2D - Pass Details

Date: 29 June 2022
Orbit: 433 x 444 km, 97.0° (Epoch: 07 August)

Event Time Altitude Azimuth Distance (km) Brightness Sun altitude
Rises 21:59:04 0° 354° (N) 2,428 ? -13.9°
Reaches altitude 10° 22:02:37 10° 313° (NW) 1,553 ? -14.0°
Maximum altitude 22:03:17 11° 302° (WNW) 1,523 ? -14.0°
Drops below altitude 10° 22:03:58 10° 290° (WNW) 1,551 ? -14.1°
Sets 22:07:31 0° 249° (WSW) 2,415 ? -14.1°
